Theta_e
302 302 303 303 303 304 304 304 304 304 304 299 297 298 293 290 292 302 308 309 303 290 281 285 284 286 288 294 292 293 292 291 292 291 291 290 291 289 289 288 287 287 287 287 287 288 285 289 286 289 292 292 294 295 297 297 296 293 290 293 292 306 281 283 281 283 287 290 293 293 295 295 291 291 292 290 287 288 283 279 281 282 281 280 277 277 283
302 302 302 303 303 304 304 304 304 304 304 301 299 292 289 292 293 298 307 305 299 290 284 282 280 284 290 291 290 293 292 291 289 289 290 290 289 289 288 289 289 287 290 288 287 290 280 289 290 288 291 291 296 297 296 298 294 293 290 290 295 286 285 282 278 279 280 284 286 285 290 292 288 287 289 291 291 289 286 284 282 282 283 282 280 276 283
302 302 302 303 303 304 304 304 304 305 305 304 298 292 292 291 294 296 298 299 299 292 286 284 278 283 287 286 287 289 290 293 292 291 290 292 290 289 287 290 291 290 291 289 290 292 287 284 292 292 292 292 295 296 298 299 297 303 304 305 297 288 286 284 279 273 272 270 271 274 280 284 287 289 290 291 292 289 287 282 281 279 281 283 279 277 286
301 302 302 303 303 304 304 304 304 305 305 303 299 295 293 290 286 289 289 291 291 290 291 288 284 283 285 280 285 289 286 290 292 292 290 292 291 290 291 290 291 289 288 287 287 288 292 289 288 290 288 290 294 295 297 301 299 306 308 303 295 286 286 284 280 279 275 276 278 283 288 286 283 289 290 290 290 289 284 279 277 279 277 278 282 289 291
301 302 302 303 303 304 304 304 304 304 304 304 299 294 293 290 284 282 286 288 287 286 287 290 287 285 285 281 287 284 286 288 289 292 288 292 290 291 289 289 286 285 286 285 284 286 288 289 289 289 289 290 293 296 297 298 305 307 303 303 290 285 282 287 285 287 287 286 286 289 289 286 288 288 289 291 290 288 288 285 283 284 282 279 286 294 293
301 302 302 303 303 304 304 304 304 304 303 304 298 292 292 283 285 287 288 287 282 284 283 288 287 289 288 285 288 285 285 284 282 289 291 291 291 286 287 288 288 287 287 285 281 283 283 284 283 290 289 288 290 292 297 296 302 302 298 300 292 285 282 288 286 287 290 291 290 289 290 288 287 288 289 289 289 289 286 284 285 284 277 279 288 294 293
301 302 302 303 303 304 304 304 304 304 302 303 296 289 289 287 287 290 293 286 283 283 288 289 286 285 288 285 288 284 285 283 287 287 287 288 287 288 279 284 287 287 287 283 281 282 280 281 283 286 287 287 287 286 289 294 299 298 296 296 293 288 285 289 290 287 289 289 291 290 288 286 287 286 287 289 291 290 290 290 288 285 283 285 294 294 294
301 302 302 303 303 304 304 304 305 304 302 301 294 291 288 288 287 287 288 286 286 287 287 285 282 282 287 283 284 286 286 284 286 289 287 280 284 289 284 285 287 288 286 284 280 284 284 284 280 284 286 285 288 285 289 287 291 296 292 295 295 289 285 291 287 284 286 288 291 291 288 285 284 285 285 286 288 293 293 292 291 294 294 295 295 293 290
301 302 302 303 303 304 304 305 305 304 301 295 293 292 292 292 290 291 287 285 286 288 284 285 281 277 279 280 284 287 286 285 287 286 290 287 285 288 285 287 287 288 287 286 285 286 286 286 285 287 286 282 289 286 286 291 287 290 292 293 292 289 285 289 285 282 281 287 288 290 289 287 285 284 284 284 283 285 287 286 290 291 291 293 292 289 287
301 302 302 303 303 304 304 305 305 304 302 293 292 292 293 292 293 291 283 280 286 282 283 281 279 279 281 284 283 285 285 286 287 279 285 289 289 289 288 287 286 284 284 284 285 287 287 288 288 288 289 290 293 291 292 291 289 288 290 291 286 288 285 283 283 282 281 286 287 288 288 287 283 280 283 284 284 286 289 290 291 293 296 291 289 289 292
301 301 302 303 303 304 304 305 305 304 302 294 290 292 292 292 292 290 283 282 279 281 279 280 279 285 285 286 285 287 285 286 286 282 281 288 288 289 289 287 285 281 282 288 291 291 291 291 290 289 289 290 290 291 292 293 293 293 290 287 288 289 288 285 287 283 282 285 284 287 284 278 278 287 289 287 285 286 287 286 289 291 291 289 292 292 293
301 301 302 302 303 303 304 305 305 305 303 300 296 294 295 293 290 283 277 280 280 281 280 281 282 284 284 286 286 285 284 285 285 288 284 285 287 288 287 286 284 280 287 290 290 290 291 292 290 293 293 292 291 293 293 291 292 294 293 290 286 287 286 285 285 282 281 283 284 282 277 278 287 291 292 291 291 291 289 289 289 290 291 291 290 291 291
301 301 302 302 303 303 304 304 305 305 305 299 296 294 295 296 294 284 281 281 278 279 278 282 285 286 286 285 285 284 285 286 287 287 288 287 286 287 288 287 285 287 291 290 290 290 287 285 286 289 289 289 290 292 292 291 290 292 292 292 288 285 286 283 282 282 283 281 280 276 276 285 288 289 290 292 292 290 289 289 290 290 291 290 288 289 289
301 301 302 302 303 303 304 305 305 305 305 302 294 293 294 295 291 285 280 278 280 280 282 280 282 284 284 284 284 284 284 285 286 286 286 288 287 286 288 290 290 291 291 290 288 287 282 281 280 279 283 284 283 283 288 289 290 290 289 290 292 290 286 285 283 283 278 278 279 279 284 284 286 285 287 286 285 286 285 283 286 289 292 290 288 288 289
301 301 301 302 302 303 304 304 305 305 305 305 295 293 294 294 291 289 285 283 280 282 279 279 281 283 284 283 283 281 280 281 283 282 286 288 287 289 289 290 292 291 290 289 283 282 282 281 280 277 279 277 275 278 284 284 289 290 289 289 290 289 286 284 283 282 283 281 279 279 278 275 281 286 289 292 290 291 290 286 284 290 291 291 290 288 288
301 301 301 302 302 303 304 304 305 305 305 305 295 293 294 296 293 291 285 280 279 276 280 283 285 285 282 283 284 283 280 277 280 279 282 283 286 288 290 291 292 290 290 286 283 280 280 279 276 273 274 275 279 279 278 283 282 287 287 289 290 289 288 285 284 281 280 277 276 275 273 276 281 284 288 290 292 290 291 285 282 288 290 291 290 288 288
301 301 301 302 302 303 304 304 305 305 305 304 296 292 297 297 295 288 283 282 281 280 280 286 285 283 279 278 281 280 282 280 281 278 277 280 283 285 288 290 291 291 289 282 282 279 281 279 279 278 280 282 278 277 282 280 277 279 285 285 286 285 283 284 283 280 278 277 277 276 280 278 284 286 287 289 289 291 287 279 278 286 290 291 290 288 288
300 301 301 302 302 303 303 304 305 305 305 305 296 293 295 298 294 290 286 282 279 280 283 286 284 280 280 281 281 284 283 280 281 279 279 281 282 283 285 287 287 290 290 282 280 278 278 278 279 276 276 284 283 281 274 280 277 278 280 279 278 278 280 282 279 278 279 279 278 278 278 283 286 287 288 289 290 289 280 275 280 288 289 291 291 290 290
300 300 301 301 302 303 303 304 305 305 305 304 299 292 294 297 298 292 286 282 280 281 282 287 288 286 287 287 285 286 286 285 282 278 278 276 281 285 286 287 290 283 287 281 281 279 277 277 280 278 276 278 280 277 280 275 277 280 279 277 278 277 277 280 280 279 277 276 276 276 278 283 287 288 288 289 287 280 276 284 289 291 290 292 292 291 291
300 300 301 301 302 302 303 304 305 305 305 305 298 292 294 296 297 295 288 282 278 281 284 288 288 287 288 286 283 282 282 282 279 279 278 276 282 285 284 283 286 285 283 282 279 281 276 276 277 279 276 277 280 281 275 278 281 280 279 280 275 278 275 276 276 278 277 276 274 274 274 282 289 287 287 287 282 279 286 287 288 291 291 291 291 292 291
300 300 300 301 301 302 303 304 304 305 305 305 302 291 291 294 297 296 291 286 282 280 281 287 288 288 288 287 288 287 285 283 284 282 282 280 283 280 275 276 280 281 280 280 278 277 279 276 278 277 280 279 279 279 277 273 278 283 283 281 280 282 275 276 276 281 274 274 275 275 280 285 289 286 281 284 286 289 288 288 285 288 290 290 289 289 291
299 300 300 301 301 302 303 304 304 304 305 305 302 291 290 295 297 299 296 290 282 283 286 288 290 288 288 288 290 289 289 288 291 289 286 282 283 282 282 281 284 283 286 284 280 279 280 279 279 275 275 277 280 274 276 270 272 278 281 280 275 284 279 276 275 280 276 276 279 285 287 287 288 288 287 288 290 290 289 289 288 288 288 290 289 289 290
299 299 300 300 301 302 303 303 304 304 304 305 300 293 292 295 297 298 290 288 287 287 288 287 286 289 292 292 291 291 289 290 291 288 284 282 282 281 282 282 282 286 287 285 283 280 280 280 277 279 276 278 276 275 279 275 274 278 276 283 282 286 285 284 283 281 285 286 287 288 287 288 289 290 290 290 290 291 291 290 288 288 289 289 289 290 290
299 299 299 300 301 302 303 303 304 304 304 304 301 292 291 292 295 294 292 288 284 286 285 285 283 282 283 289 292 292 293 293 294 293 290 287 280 279 279 282 285 284 281 285 283 284 279 277 281 280 276 279 278 274 272 275 274 280 278 278 279 282 283 280 280 283 279 276 285 287 287 288 289 289 291 293 293 292 292 291 291 291 291 291 291 290 290
299 299 299 300 301 301 302 303 303 304 303 304 301 297 294 292 293 294 288 286 284 280 279 280 279 288 290 290 291 290 292 292 295 292 290 288 286 282 282 288 289 286 285 286 281 281 278 277 279 276 275 280 280 275 278 276 277 279 274 278 278 281 285 282 279 277 274 278 284 285 285 286 288 289 290 290 291 292 292 293 293 293 294 293 293 293 291
299 299 299 300 301 301 302 303 303 303 303 304 302 292 292 293 294 292 292 291 284 281 281 279 285 291 289 291 291 292 294 292 291 292 292 292 290 289 289 289 286 286 286 284 283 279 276 275 275 275 277 278 279 276 277 280 280 280 279 279 282 281 284 277 279 278 279 281 283 283 284 285 285 287 289 290 291 291 291 292 293 293 293 292 292 293 292
299 299 299 300 300 301 302 303 303 303 303 304 299 292 293 293 292 294 292 289 283 281 280 280 281 286 291 290 293 292 294 292 292 291 292 291 289 287 287 285 284 283 282 281 280 278 278 277 276 278 279 279 280 280 280 280 278 275 276 281 281 280 279 281 281 278 275 276 280 281 278 277 283 285 286 287 289 290 289 290 290 290 290 290 290 289 290
299 299 300 300 301 301 302 303 303 303 303 303 298 292 292 291 292 294 292 290 288 282 282 279 282 287 289 291 292 289 292 293 291 291 290 290 289 287 287 284 282 283 281 279 281 280 276 276 279 276 276 279 279 279 279 279 278 277 280 281 280 280 281 278 274 276 275 279 284 283 281 283 283 285 286 287 287 287 288 288 288 289 289 289 288 287 287
299 299 300 300 301 301 302 303 303 303 303 301 290 292 291 292 293 295 298 296 289 284 280 282 282 283 281 285 291 289 290 292 291 290 290 289 289 287 286 286 283 280 279 279 278 277 277 278 276 278 280 280 278 277 276 274 270 273 279 282 282 284 283 281 281 281 282 285 286 285 284 284 285 285 286 286 286 287 287 287 287 287 288 288 288 288 286
299 300 300 301 301 302 302 302 303 303 302 290 290 284 284 291 290 295 298 298 290 284 282 280 279 282 285 288 289 288 289 291 289 291 290 288 288 287 287 285 285 285 282 280 279 277 279 279 276 278 282 283 278 273 271 275 273 279 280 281 284 284 285 285 285 284 283 287 287 288 287 287 286 286 286 286 288 287 286 285 285 285 284 286 286 285 285
299 300 301 301 301 302 303 303 303 303 299 287 285 283 280 283 289 293 300 296 293 287 282 280 282 281 283 288 288 289 288 291 288 288 288 288 287 287 287 285 284 285 281 280 279 279 277 277 277 280 280 284 277 272 276 274 273 277 281 281 283 285 285 285 285 287 287 287 287 288 287 287 288 288 288 288 287 288 286 286 288 289 287 286 285 285 284
300 301 301 302 302 302 303 303 303 302 291 288 286 285 284 287 290 294 300 299 295 290 282 280 281 281 279 282 287 290 291 291 290 286 284 287 287 286 286 287 285 284 286 280 280 279 279 277 276 279 280 283 279 272 276 275 273 277 282 282 283 284 284 285 286 286 287 287 287 285 284 284 288 288 286 288 287 287 288 286 285 286 289 286 284 284 284
300 301 301 302 302 303 303 303 303 301 292 295 299 300 299 300 301 301 300 294 292 287 282 278 278 279 279 282 287 289 291 285 285 282 285 285 287 283 282 284 282 283 291 283 280 279 280 276 275 278 281 279 274 273 274 271 277 281 280 283 283 284 284 284 285 285 286 286 286 283 282 283 285 286 286 285 285 287 286 286 285 284 284 284 283 283 283
300 301 301 302 302 303 303 303 303 302 298 291 292 294 296 301 296 302 294 290 288 286 280 280 277 278 280 281 284 286 289 284 283 281 282 286 284 281 281 282 283 282 283 282 280 280 280 278 278 275 276 277 273 272 273 279 281 281 282 282 282 282 283 283 284 285 285 285 286 286 285 286 287 286 286 286 287 287 288 287 285 284 282 283 283 284 283
301 301 301 302 303 304 303 301 290 292 290 291 290 289 290 302 300 301 297 291 285 283 279 281 278 275 279 278 276 281 286 283 282 281 280 284 285 285 282 280 279 280 282 282 277 276 276 279 279 275 276 274 272 272 271 277 281 281 281 282 282 281 282 283 284 283 284 285 286 286 286 286 286 286 286 286 286 285 284 284 284 284 282 281 281 281 282
301 302 302 303 304 302 293 297 290 290 288 289 291 299 304 304 305 293 293 293 288 279 276 279 277 276 274 273 275 282 288 283 282 281 283 280 281 284 280 278 278 280 281 278 278 276 277 282 278 273 271 272 273 273 276 279 280 281 281 281 281 281 282 283 283 283 282 284 285 284 284 284 285 284 284 285 284 283 283 283 282 282 283 282 281 281 281
301 302 304 302 293 291 286 287 291 292 290 291 295 303 304 301 296 294 292 291 293 289 283 275 277 280 277 277 277 280 282 279 280 278 281 280 279 278 278 276 277 280 275 274 275 276 279 282 275 271 272 271 275 279 280 281 280 281 283 283 283 282 281 281 283 282 283 283 284 283 283 283 283 283 283 283 283 283 282 282 282 282 281 282 280 281 282
303 302 291 289 285 283 285 284 291 294 301 301 301 293 290 289 286 283 283 283 286 289 280 280 278 281 279 278 278 284 281 277 279 280 279 279 279 279 278 278 278 279 272 275 278 282 276 275 272 273 275 278 279 281 281 282 283 283 283 283 283 283 283 283 283 283 281 281 282 284 284 283 282 282 282 282 282 282 283 284 283 282 282 282 282 282 281
299 289 287 285 283 283 283 289 293 302 296 295 289 286 284 282 280 280 280 281 280 282 279 278 280 279 279 280 281 284 284 279 275 276 276 281 277 276 277 274 278 275 272 273 276 278 274 273 269 268 272 276 278 280 281 282 283 283 283 283 284 284 283 282 282 282 283 283 284 284 284 284 283 284 283 282 283 282 283 282 282 281 281 280 280 281 282
288 288 285 282 284 286 290 293 299 296 291 287 282 281 280 280 280 279 279 279 279 279 277 279 282 281 281 281 280 280 284 281 275 277 276 278 281 276 278 276 278 273 270 269 276 277 270 270 269 267 272 275 279 280 280 282 283 283 282 283 284 283 283 282 284 283 283 284 285 285 286 287 288 288 287 285 282 282 282 281 282 281 281 281 282 282 282
287 286 284 284 288 287 289 291 290 285 283 280 278 279 278 279 280 280 277 275 277 279 280 281 279 281 282 280 279 278 284 285 282 279 275 276 281 279 274 274 277 271 269 271 276 275 269 268 266 266 270 275 278 280 281 282 283 284 283 283 283 282 283 283 284 284 285 284 285 285 285 285 286 285 286 285 282 280 280 281 281 282 281 281 282 282 282
288 288 288 290 291 290 289 286 282 282 280 280 277 275 276 277 279 279 278 276 276 276 282 280 279 280 282 283 283 282 282 284 280 277 277 277 281 276 275 275 274 268 268 273 275 270 269 268 267 270 274 278 279 280 281 284 285 284 284 283 283 283 283 283 284 284 284 285 284 285 286 287 287 286 285 285 284 283 282 282 282 282 282 282 282 281 281
299 297 294 288 285 284 282 281 282 278 275 274 271 273 275 275 277 276 278 277 277 279 281 285 284 283 285 284 283 284 283 285 283 280 276 277 279 276 273 271 272 270 275 276 272 265 266 266 268 271 276 279 281 283 283 284 284 284 284 282 282 283 283 284 284 285 284 284 284 284 284 284 285 287 286 285 287 287 285 283 282 282 282 283 283 282 281
293 292 287 281 283 283 281 277 282 280 276 274 273 272 273 274 276 274 274 278 278 279 282 282 282 280 279 283 282 282 280 283 282 278 277 278 277 274 271 271 272 274 274 270 267 268 269 269 271 277 279 280 283 281 280 281 281 282 283 283 281 282 283 283 283 284 286 284 284 284 284 284 285 286 286 286 286 287 286 284 281 282 282 282 282 282 281
284 281 278 277 276 279 279 272 277 276 273 274 276 274 272 271 273 269 275 278 280 282 281 280 280 281 281 282 280 280 281 280 280 277 276 275 272 274 271 271 272 270 269 269 265 265 269 273 276 277 279 281 281 282 281 281 281 282 283 283 283 282 282 285 285 283 284 284 285 286 286 284 285 286 287 287 286 285 284 283 282 282 282 282 282 282 281
281 278 274 274 273 275 275 272 273 274 275 277 276 276 276 277 278 280 282 281 280 282 283 282 282 281 280 280 280 280 278 276 276 277 278 274 271 272 276 275 271 266 266 261 264 267 267 274 272 275 278 280 280 280 281 282 283 282 283 284 284 283 283 282 282 282 283 283 284 284 285 284 286 288 288 287 285 284 284 284 283 283 282 281 282 283 282
283 282 278 276 273 275 277 275 274 276 278 279 278 278 281 281 279 281 282 281 283 282 282 281 281 282 280 279 279 280 278 276 276 278 274 272 273 276 277 272 269 266 264 265 264 264 267 274 274 276 279 279 280 281 283 284 284 282 283 283 282 282 283 282 283 283 283 282 283 283 283 284 284 286 286 286 286 285 284 284 285 283 283 284 283 282 282
280 280 279 274 272 275 277 276 276 279 280 280 281 280 282 281 282 283 283 281 283 281 282 281 280 279 279 280 277 277 278 278 276 277 277 276 276 271 267 267 264 265 264 264 264 267 271 272 276 278 279 281 282 283 283 282 283 283 283 282 282 282 282 282 283 282 282 283 284 283 283 282 283 283 285 287 287 287 287 285 285 284 283 283 283 282 283
281 278 277 274 276 277 278 278 279 280 279 280 280 280 283 284 281 283 284 280 282 283 280 278 277 276 277 279 277 276 277 278 272 273 277 272 268 268 267 265 264 267 269 266 269 272 275 280 281 280 281 281 281 281 281 280 282 282 282 283 284 283 282 282 282 282 282 282 282 282 283 283 283 283 284 285 286 288 288 287 286 285 284 283 283 282 282
281 280 281 278 277 277 278 280 281 278 279 280 280 280 280 282 282 284 281 283 282 280 281 283 279 278 279 278 275 274 275 277 277 277 270 269 269 268 266 265 265 267 271 275 277 281 281 280 280 282 282 281 280 280 281 283 282 281 282 282 283 282 283 283 283 282 282 282 283 284 284 283 283 283 284 285 285 285 286 287 287 287 286 285 284 282 282
282 281 279 277 277 278 279 277 278 276 277 279 280 280 279 282 281 284 284 281 280 277 277 278 279 277 274 272 271 269 274 276 273 271 271 271 274 271 267 268 270 273 276 276 276 277 280 281 280 282 281 279 279 280 281 282 282 283 283 283 284 282 283 282 283 283 283 282 282 283 283 284 285 285 285 284 284 286 285 285 286 287 286 285 284 283 283
278 278 281 280 280 279 280 280 280 280 281 281 282 282 281 284 282 283 283 282 280 280 278 278 279 275 272 271 272 273 278 275 273 272 270 273 273 270 269 270 273 276 278 277 280 280 280 280 280 279 281 281 281 281 281 282 282 283 283 283 282 283 283 283 283 283 282 283 283 283 284 284 283 283 283 284 284 285 284 284 284 282 283 285 287 286 284
Wind_Speed
16 17 18 18 20 19 19 19 19 16 17 5 4 3 1 2 1 3 4 1 5 3 1 2 2 1 3 3 2 2 2 2 2 2 1 2 1 1 0 2 1 2 0 2 1 1 0 2 2 1 1 2 1 6 2 2 5 3 1 1 1 4 1 1 4 5 3 4 2 4 3 1 7 4 2 5 3 2 4 3 4 6 1 1 1 1 2
16 17 18 18 20 19 20 19 18 17 11 5 4 2 2 1 0 3 1 3 2 2 2 1 2 2 4 1 3 3 2 1 3 1 2 0 2 0 1 4 1 2 1 0 2 2 1 2 4 2 2 2 5 5 6 5 2 2 2 3 3 1 3 3 1 1 4 7 7 4 5 4 4 2 1 0 1 2 3 2 1 3 5 6 8 5 4
16 17 18 19 20 20 20 19 19 16 13 6 1 1 1 1 1 0 4 5 2 2 3 3 1 1 1 1 5 6 3 2 3 2 2 2 1 1 1 2 2 1 1 1 1 2 2 1 3 1 2 2 3 6 5 5 3 2 2 3 2 5 2 3 4 4 4 2 2 2 1 1 1 2 1 3 8 6 3 1 1 2 1 3 3 2 5
17 18 19 19 20 20 20 19 17 15 13 3 3 3 1 0 3 3 2 5 4 2 1 3 2 0 0 2 2 0 3 4 3 2 3 1 2 1 2 3 0 1 3 3 5 4 4 3 1 5 4 4 3 4 6 6 2 3 11 5 3 2 2 3 2 6 6 3 4 4 1 1 1 1 4 2 2 3 7 4 2 2 1 2 3 5 8
17 18 19 19 20 20 20 20 18 17 15 9 6 2 1 1 3 1 1 3 5 0 3 0 2 1 2 1 0 2 2 3 4 2 1 4 4 1 3 3 2 2 2 0 1 2 3 6 2 3 3 3 2 7 4 6 8 5 4 5 4 3 4 5 2 4 1 2 1 3 1 2 1 2 3 3 4 3 7 5 1 1 6 3 1 4 13
17 18 19 19 20 20 20 21 19 19 12 14 3 2 1 2 1 2 1 3 2 1 2 0 1 0 1 0 0 1 2 3 2 4 1 2 3 1 2 6 4 2 1 1 1 3 2 3 1 4 4 4 7 4 7 6 7 5 2 4 4 3 2 2 1 3 6 8 5 3 6 5 3 6 6 7 4 6 5 0 1 3 1 4 4 3 5
17 17 18 19 20 20 20 20 19 17 7 9 0 1 1 2 0 0 1 1 2 3 1 2 1 1 0 0 1 1 1 2 1 0 3 4 3 3 1 4 6 4 4 2 0 0 1 0 2 2 4 3 4 5 3 3 7 6 3 4 2 5 1 1 1 3 9 10 9 5 9 3 6 8 7 6 6 5 6 4 1 4 1 4 6 6 6
16 17 18 20 19 20 21 23 20 17 4 3 2 2 1 1 1 0 4 4 1 1 1 1 3 1 3 0 1 0 1 2 3 2 1 1 2 1 2 4 5 2 3 2 1 1 1 0 0 0 3 6 3 1 1 3 3 3 2 1 2 2 1 2 1 3 4 7 5 6 5 4 4 6 10 11 8 5 5 3 3 7 9 7 8 9 5
16 16 18 19 19 19 21 22 21 19 4 2 1 1 2 1 1 2 3 2 3 2 2 1 1 1 4 3 2 2 2 1 1 3 1 1 1 1 1 2 4 0 2 1 1 4 3 4 6 4 2 0 2 2 6 1 6 4 1 2 1 4 0 1 1 3 2 5 5 2 2 4 6 6 12 11 10 4 4 2 3 1 8 6 8 5 3
17 17 18 19 19 20 21 21 21 20 11 4 1 2 2 0 0 2 3 3 4 2 1 2 2 2 2 1 2 1 3 3 2 2 3 1 2 2 2 2 0 4 5 4 3 4 5 7 5 4 4 5 6 6 6 4 3 1 2 0 3 2 4 2 1 4 1 2 3 3 3 3 2 5 8 8 5 4 3 2 5 4 3 12 8 5 2
16 16 17 18 19 19 20 20 20 18 10 4 3 1 1 1 1 2 5 6 2 3 1 4 4 1 2 4 1 2 3 6 4 1 2 2 4 0 1 1 1 3 2 4 4 4 6 6 1 6 5 7 5 4 6 6 3 5 5 2 1 2 5 3 0 2 1 1 1 2 3 5 3 1 2 2 4 5 3 4 6 7 2 1 3 7 8
15 16 17 18 19 19 19 19 19 18 10 1 2 1 3 1 4 3 3 6 0 3 4 1 0 2 3 4 2 2 3 4 4 1 2 2 5 4 3 1 2 4 3 4 4 4 6 1 3 3 1 2 2 4 3 4 7 3 1 5 3 5 4 2 1 3 1 0 2 4 2 0 1 2 3 4 3 5 8 7 10 8 3 11 13 10 9
16 16 17 18 19 19 19 19 18 17 13 2 2 1 2 1 2 2 6 7 2 2 2 1 1 1 1 4 5 3 5 4 3 3 2 1 3 4 1 1 1 4 6 11 6 3 3 1 3 3 3 2 3 2 11 10 9 7 5 3 7 5 6 3 3 2 2 2 1 2 2 0 3 3 2 4 1 2 2 5 10 9 4 6 12 10 10
15 16 17 18 19 19 19 19 18 17 15 6 2 4 2 0 1 2 1 5 2 1 1 2 4 5 5 5 1 4 3 7 7 1 3 1 1 3 3 1 4 6 8 4 2 1 3 5 4 4 1 3 2 4 3 1 6 9 9 6 2 7 4 4 2 1 2 1 2 1 1 1 2 3 4 4 3 5 3 2 3 7 2 4 13 12 11
15 16 16 17 18 19 19 19 19 19 17 13 1 3 3 2 1 3 2 6 4 0 1 1 2 2 1 2 2 5 3 3 6 5 2 2 0 1 3 5 6 7 5 0 2 4 3 3 3 3 3 2 1 1 2 1 3 4 5 4 4 2 4 3 4 1 3 4 3 1 2 1 1 1 1 2 2 4 3 0 2 4 5 4 14 15 13
15 16 16 17 18 18 19 19 19 19 17 15 2 1 2 2 2 5 3 5 6 3 3 3 3 2 1 0 1 2 2 2 3 3 7 5 2 8 5 5 8 4 3 4 1 2 1 4 3 4 2 2 1 1 1 2 2 2 4 6 6 8 7 5 6 2 3 2 4 2 3 1 0 5 7 5 2 7 1 1 1 1 3 2 9 15 12
15 15 16 17 18 18 18 19 19 18 17 14 4 2 6 5 1 2 4 3 6 1 4 1 2 3 4 2 4 2 1 1 2 2 3 5 4 4 10 8 5 2 6 3 5 3 4 5 1 2 0 1 1 1 1 2 1 3 8 7 10 10 6 5 6 4 3 3 3 1 1 0 1 4 7 8 3 2 2 0 1 1 4 4 5 13 12
14 16 16 16 17 18 18 18 18 18 16 16 3 1 3 4 3 3 5 5 6 1 3 2 2 4 4 1 0 2 1 2 3 1 1 3 2 4 5 5 9 5 3 5 3 5 3 4 2 0 2 1 2 1 1 1 2 1 2 2 3 5 4 6 3 2 4 5 2 2 1 1 2 5 11 9 4 1 1 3 0 0 4 6 4 7 7
14 15 15 16 17 17 18 18 18 18 17 18 5 0 4 4 5 6 8 4 4 3 5 2 1 2 1 2 1 0 0 0 1 1 4 5 1 3 3 5 1 5 7 2 3 4 2 0 0 1 2 3 3 1 0 3 1 1 1 3 5 4 1 2 3 5 3 1 4 1 1 1 4 8 7 6 1 1 2 1 2 2 5 6 7 7 5
14 15 15 16 16 17 17 17 18 18 17 18 5 3 1 3 4 3 4 5 2 3 1 0 1 2 0 3 4 5 2 4 1 3 1 1 5 5 2 5 4 3 6 2 4 0 3 1 1 0 4 2 1 3 4 1 1 2 0 0 3 2 2 1 2 1 1 3 4 2 1 1 7 13 5 3 1 1 1 0 3 4 6 7 5 4 6
14 14 15 16 16 17 17 17 17 17 18 19 8 1 3 3 4 4 2 7 6 5 3 3 1 0 1 2 2 5 5 3 0 1 1 4 3 1 3 1 4 2 2 2 3 2 0 2 3 1 1 1 2 3 2 1 2 2 3 2 3 1 2 1 1 1 1 2 2 1 2 6 10 4 2 2 0 1 2 1 3 4 5 6 7 5 4
13 14 15 16 16 17 17 18 18 18 18 18 11 3 3 4 3 4 1 5 4 3 4 1 0 1 3 3 5 4 3 2 1 3 0 2 4 4 2 0 2 0 0 1 3 2 3 0 0 3 4 3 3 4 1 4 3 5 3 3 4 8 2 2 4 2 2 1 2 1 1 4 4 3 3 2 4 5 4 6 6 6 5 3 8 7 7
12 13 14 15 15 16 16 17 17 16 16 17 9 4 1 4 7 4 1 5 2 1 3 3 2 2 2 1 2 5 3 1 4 2 3 2 2 2 1 1 3 1 0 1 1 3 1 2 2 3 3 3 3 2 6 4 2 3 4 3 6 1 5 3 6 3 4 6 3 1 1 1 5 5 4 5 7 6 6 9 10 7 6 5 8 8 8
12 13 13 14 15 16 16 16 16 15 16 15 8 1 2 1 4 5 6 6 3 3 2 5 5 1 1 2 2 2 0 0 0 1 1 2 2 3 2 2 2 1 1 2 2 1 1 2 1 2 5 1 2 4 3 5 3 0 2 2 2 2 1 3 5 2 3 1 2 2 2 4 4 6 7 7 7 7 8 11 10 9 9 10 9 9 9
12 12 13 14 14 15 15 15 14 14 14 15 11 2 0 3 2 3 2 2 1 2 2 2 2 2 3 3 0 2 1 0 1 2 3 4 4 3 1 1 0 1 2 2 1 6 4 4 2 3 5 1 2 2 1 5 2 1 4 2 2 2 2 8 3 3 3 3 2 1 2 2 4 3 6 7 8 9 8 8 8 8 9 9 9 10 11
12 12 12 13 14 14 14 14 14 13 12 13 8 3 3 1 4 1 6 4 3 4 4 0 1 3 3 3 3 2 1 1 5 6 5 2 0 1 1 1 3 3 2 2 4 6 3 4 3 2 5 1 1 3 3 1 3 0 6 1 1 2 3 1 0 4 2 3 2 1 4 6 5 3 3 3 5 8 9 9 10 10 11 10 10 8 6
12 12 13 13 13 14 14 14 13 12 13 12 5 1 1 1 2 6 2 1 3 3 3 2 3 5 4 2 1 3 1 4 5 6 6 7 6 4 6 4 4 5 6 4 3 5 4 3 4 3 2 0 1 2 2 3 3 3 3 3 3 3 4 0 6 6 0 4 4 3 4 0 1 0 2 4 3 6 7 7 8 8 8 8 9 7 6
11 12 13 13 13 13 13 13 12 12 12 10 4 1 0 3 3 2 1 2 2 3 4 1 1 2 2 1 2 3 5 4 5 5 6 6 8 8 8 5 4 5 4 3 4 5 3 6 3 1 1 0 4 3 2 1 3 5 6 5 1 3 4 4 3 6 3 5 6 3 3 4 4 4 2 1 3 6 8 7 7 6 7 8 10 9 7
12 13 13 13 12 13 13 12 12 9 11 7 2 1 1 0 1 2 3 1 5 5 5 1 2 3 2 2 4 3 4 5 5 5 5 6 7 7 6 6 4 3 3 4 3 3 4 1 1 2 1 1 5 1 4 4 3 3 2 5 3 1 3 2 4 4 1 2 7 5 3 6 4 4 1 0 0 6 6 4 5 7 7 7 8 9 10
12 13 13 13 13 13 12 11 10 9 7 2 2 3 3 1 1 4 5 3 2 3 3 2 3 0 3 2 3 3 3 3 5 6 7 6 7 6 6 5 4 2 4 3 2 4 0 2 1 1 1 1 2 1 3 1 3 0 3 3 2 2 4 2 2 3 3 1 2 1 2 4 3 3 2 1 0 3 7 5 6 6 4 6 8 5 6
13 14 14 13 13 12 12 10 9 8 5 2 2 1 1 1 1 1 5 3 0 3 3 3 2 1 2 0 0 4 4 4 3 4 4 3 1 2 2 2 3 3 4 4 4 0 1 3 1 2 2 2 3 3 4 3 2 1 2 3 1 5 5 4 3 6 9 7 5 5 5 5 4 5 3 2 3 3 3 1 1 4 6 6 7 7 5
14 14 14 13 13 12 11 10 7 5 3 3 2 1 2 2 2 4 5 2 1 3 2 3 1 2 1 2 2 1 1 1 2 2 2 3 4 4 4 5 2 2 3 2 0 2 2 1 1 2 3 3 6 3 3 4 5 3 1 0 0 2 2 5 6 5 7 9 10 9 6 3 3 7 4 4 4 3 6 5 4 4 6 6 4 4 6
14 14 14 13 13 11 10 9 6 3 1 3 6 5 7 8 8 6 4 1 3 1 2 4 2 1 1 1 3 4 3 2 6 5 2 2 2 3 3 4 3 4 3 5 3 1 1 1 0 5 2 1 3 2 4 2 2 3 3 3 1 3 4 2 4 3 5 2 6 7 6 6 5 3 5 4 4 6 7 6 4 4 6 7 5 4 3
15 15 14 13 12 10 9 8 6 4 2 2 2 1 1 1 1 1 1 3 2 0 2 2 1 1 0 3 4 3 3 1 1 2 1 4 0 3 1 3 4 3 5 4 1 2 2 3 4 1 4 4 2 5 2 0 1 2 1 1 1 2 3 4 4 4 3 3 2 5 6 4 4 4 4 5 5 3 4 5 6 6 5 7 7 7 5
15 15 14 12 9 8 5 3 2 2 1 0 1 3 1 2 2 1 1 1 1 1 2 1 2 2 1 3 1 3 1 3 2 1 3 2 1 2 1 3 4 5 2 2 4 2 2 1 1 5 1 4 4 1 2 4 1 0 0 1 0 4 4 3 1 2 2 2 5 5 6 8 9 7 8 5 5 5 5 5 5 7 6 5 5 5 5
15 14 12 9 6 2 0 1 2 1 2 0 1 3 4 3 3 1 1 1 1 2 2 0 1 2 3 3 0 1 1 1 1 1 0 0 3 2 4 2 4 1 1 4 1 3 2 2 2 1 3 5 0 1 2 2 2 0 1 1 3 2 2 4 5 2 2 2 3 4 5 3 7 8 7 7 6 5 5 6 3 3 6 5 5 4 4
14 11 7 4 2 2 2 0 2 0 1 2 3 2 3 2 1 1 2 1 2 2 3 2 5 1 2 1 1 3 2 2 3 3 5 4 0 2 3 3 1 2 3 4 4 4 3 1 7 3 4 1 2 4 3 2 4 3 1 1 2 3 4 3 2 3 3 4 6 4 3 3 1 0 3 4 5 3 3 4 6 5 5 7 5 5 7
8 1 1 1 2 2 1 1 0 2 3 4 4 2 3 5 0 2 3 3 2 3 3 4 3 0 1 3 1 2 2 1 1 1 1 0 1 1 0 2 1 1 2 1 1 1 1 6 3 4 1 2 3 2 4 3 2 2 2 3 3 2 1 1 4 5 4 3 2 3 3 2 3 2 4 5 4 4 7 7 6 5 5 5 5 6 4
4 1 3 3 3 0 1 0 3 6 1 1 3 1 1 1 1 1 1 1 2 3 2 4 1 0 4 4 1 2 2 1 3 3 2 2 1 1 1 2 2 3 1 2 2 2 3 3 3 4 2 4 4 3 4 3 2 1 1 1 1 2 4 3 2 3 5 7 7 6 5 5 3 3 4 2 4 4 5 5 3 3 3 4 4 4 5
3 2 1 1 1 1 4 5 7 2 2 1 1 2 0 1 3 0 1 2 1 1 1 3 0 1 1 5 4 2 1 2 1 1 1 1 0 2 1 1 1 3 0 1 1 3 5 2 1 3 1 2 1 2 2 2 1 1 1 1 1 3 4 4 3 1 4 1 1 3 4 5 6 3 1 4 3 2 3 4 5 4 4 5 5 6 7
2 1 1 1 1 2 3 5 4 2 1 1 1 2 1 1 1 0 1 1 1 0 0 1 1 2 2 2 2 1 3 2 1 3 3 2 1 2 2 1 1 2 1 1 2 2 2 3 2 1 2 2 2 2 2 0 2 2 1 0 2 4 4 4 4 2 2 3 4 3 2 4 2 2 4 4 4 3 3 3 4 4 4 4 7 7 4
1 1 1 1 1 2 2 2 2 1 1 0 2 0 0 1 0 2 1 2 1 0 2 2 1 2 1 0 1 2 1 0 1 1 1 1 1 1 1 0 2 2 0 2 1 2 3 2 0 1 2 2 4 2 2 1 2 3 3 3 3 4 4 4 4 5 4 4 2 1 1 4 3 1 1 2 3 3 3 1 2 3 6 5 2 3 4
3 2 3 0 1 1 1 1 2 1 1 1 3 1 1 1 0 2 0 0 1 2 1 0 0 0 1 2 1 0 1 0 0 1 2 0 1 2 2 1 1 2 1 1 2 2 3 1 1 2 5 4 3 1 2 1 1 1 1 2 1 1 1 4 4 3 3 4 4 3 3 3 1 0 1 4 3 0 4 5 4 5 4 6 6 5 4
2 1 1 2 1 1 1 1 0 1 1 0 2 2 1 1 0 1 2 0 0 1 0 3 1 3 1 3 2 1 2 2 3 2 1 0 2 1 1 1 0 2 1 2 2 3 1 1 2 1 3 3 1 1 1 1 1 1 3 2 2 1 1 1 1 2 1 1 2 1 0 2 3 4 4 3 3 4 5 5 2 3 3 4 4 4 4
1 2 2 1 1 1 1 1 2 2 1 1 1 2 3 4 2 1 3 2 2 2 1 2 4 5 2 1 2 1 1 0 1 2 0 0 2 1 1 0 1 2 2 0 1 1 1 1 1 2 2 1 1 2 1 0 1 0 0 1 2 2 1 0 0 1 1 1 1 0 0 2 3 2 2 2 2 2 5 5 4 4 4 4 3 3 3
1 2 2 3 2 2 1 0 0 0 1 2 1 5 4 3 5 3 1 1 3 2 5 3 4 5 2 1 3 1 0 1 2 0 0 2 2 0 0 0 2 2 1 2 1 1 3 4 2 2 2 3 2 2 2 1 1 0 2 1 1 0 0 1 2 3 3 2 3 2 2 1 1 0 2 2 4 1 2 2 1 4 4 4 4 5 5
1 1 2 1 2 1 0 1 1 1 2 2 2 5 6 6 4 4 2 2 6 5 5 1 3 1 3 1 1 2 2 1 1 1 1 1 0 0 2 2 0 0 2 0 1 2 2 4 4 5 4 3 3 3 2 2 1 1 1 1 1 1 1 1 1 2 3 2 3 4 3 2 2 1 1 1 1 2 2 2 3 3 4 6 5 3 4
1 1 1 1 2 1 1 1 1 1 1 3 3 2 2 2 5 5 2 1 4 2 4 3 2 2 3 2 3 1 0 0 2 1 1 1 1 2 1 2 0 1 1 3 3 4 3 3 4 5 4 3 3 1 2 2 1 1 2 2 2 2 3 2 2 3 3 3 4 4 4 3 3 3 2 2 2 1 1 1 1 1 3 2 2 3 4
2 1 1 1 1 1 0 1 3 6 3 4 3 3 5 8 5 3 0 1 4 3 2 3 2 2 1 1 1 1 1 1 2 1 1 2 1 1 1 1 0 0 2 3 1 2 4 4 4 3 2 1 1 2 2 3 3 2 2 2 2 2 3 4 4 4 3 3 4 4 4 4 3 3 3 2 3 2 2 2 1 0 1 2 3 4 4
1 1 1 1 2 2 1 1 7 4 2 1 2 3 2 7 5 0 0 2 0 2 1 3 2 4 0 1 1 1 0 1 1 0 2 0 1 1 2 1 2 3 1 2 2 2 2 1 2 2 0 1 2 2 2 2 3 3 4 4 4 3 3 4 5 4 3 4 4 4 4 3 4 4 5 6 5 2 1 1 3 3 3 2 1 2 3
0 1 1 1 3 1 2 4 7 4 2 3 4 4 2 4 4 2 0 2 2 4 4 1 0 1 1 2 1 1 1 0 2 1 2 1 1 2 2 2 2 4 4 3 3 3 3 2 2 1 1 2 3 3 4 4 4 4 4 4 4 4 4 4 4 5 4 3 3 4 4 5 6 6 4 1 1 1 2 3 3 3 3 4 4 3 4
1 1 0 1 1 1 3 3 4 3 5 5 3 1 2 3 2 0 0 6 4 5 1 0 1 1 2 1 1 1 0 2 0 1 2 1 1 2 2 3 3 5 5 2 2 3 3 3 3 4 3 3 3 3 3 3 3 4 4 4 3 3 4 4 4 4 4 4 3 3 5 5 3 2 2 2 2 2 4 5 5 2 2 0 1 4 4
Wind_Direction
336 335 335 335 333 332 334 336 338 338 336 346 356 325 19 60 144 269 152 185 95 72 46 305 32 251 237 289 291 273 286 230 276 323 300 347 228 336 312 249 13 273 213 315 301 346 195 332 287 246 272 278 234 292 332 98 52 77 327 55 230 107 73 25 289 312 298 302 325 347 306 331 63 23 71 56 352 249 187 171 179 139 168 55 10 96 240
336 337 337 335 333 331 333 335 336 335 337 330 315 45 94 111 283 9 41 69 97 81 240 298 289 271 309 21 263 270 244 329 333 292 300 176 331 228 260 336 109 260 345 310 331 319 70 57 40 350 344 48 320 31 19 8 45 65 225 138 262 85 309 123 46 20 338 332 339 352 340 33 91 106 334 105 198 117 202 105 30 107 217 171 134 209 242
338 339 338 334 332 330 332 333 333 329 323 317 173 110 165 110 307 266 303 6 72 228 182 158 198 280 287 345 343 343 339 252 241 227 285 290 243 29 312 222 287 330 306 328 266 328 105 260 16 157 334 333 335 358 34 57 86 53 208 106 95 98 211 118 193 164 180 231 259 266 281 290 301 125 15 21 52 20 24 265 52 139 271 111 131 199 253
340 340 338 335 331 331 331 333 329 323 319 154 157 190 55 132 123 310 345 9 22 91 101 127 144 152 293 23 287 249 319 318 307 162 252 359 326 131 290 307 44 335 33 9 5 344 346 78 321 28 343 326 359 358 347 56 97 93 65 44 78 121 84 72 149 159 180 201 218 239 149 9 55 287 78 22 56 56 97 115 75 190 228 154 229 172 146
341 341 338 335 332 330 332 335 332 328 324 205 157 117 113 170 95 156 160 343 32 266 353 106 77 238 150 94 268 332 314 264 314 325 52 344 354 335 58 346 32 337 59 283 355 340 323 356 55 13 351 290 291 317 17 45 18 18 44 1 87 61 59 355 73 59 44 236 212 286 152 156 358 5 354 30 60 66 73 68 336 195 96 253 291 196 146
343 341 338 336 333 333 335 339 339 343 354 160 154 80 23 71 250 116 184 128 232 47 314 109 187 347 102 244 87 289 342 355 15 320 25 323 354 78 328 19 27 325 292 108 75 330 342 8 32 326 20 325 341 11 16 61 341 25 50 13 96 123 106 293 91 36 36 22 353 50 63 52 66 39 21 20 347 63 87 162 195 124 128 209 192 182 150
344 341 339 338 337 336 337 343 346 353 3 156 19 98 297 130 193 173 307 174 254 166 193 102 102 40 49 247 12 293 20 332 263 214 317 10 346 46 61 327 334 340 359 102 170 343 124 292 326 37 360 329 336 13 336 1 24 36 27 22 85 89 59 277 130 82 37 13 0 25 86 55 40 23 14 8 48 84 111 101 155 147 197 241 127 106 81
343 342 341 342 339 338 340 348 351 356 37 167 15 65 102 353 91 297 7 82 126 271 54 89 57 70 322 18 281 188 313 314 321 333 88 351 313 15 87 306 315 8 23 64 105 229 182 154 277 257 58 331 20 351 221 283 317 48 37 9 316 98 239 114 313 66 24 8 10 42 47 79 70 14 19 14 4 63 53 92 120 93 75 80 101 102 76
345 345 344 344 342 341 343 349 352 353 39 179 137 29 92 214 160 150 113 67 324 353 28 25 65 41 341 52 285 6 310 280 291 265 191 160 244 344 311 273 309 341 39 67 254 233 201 198 201 207 184 208 261 105 285 16 331 344 38 20 329 73 105 53 85 77 354 355 16 79 46 52 79 30 7 0 356 25 5 11 313 262 139 113 100 109 133
345 345 345 344 342 344 347 351 354 355 357 126 89 45 306 29 300 80 108 86 311 72 23 18 57 8 232 193 260 161 303 318 5 350 285 220 206 200 242 225 106 316 0 322 263 235 230 247 225 185 213 214 229 206 232 269 242 271 149 247 82 107 128 78 58 79 60 308 358 26 356 20 5 352 336 327 294 255 292 325 10 358 151 132 162 195 86
343 345 346 346 344 344 346 351 355 4 12 63 71 2 4 63 299 21 46 94 346 42 86 7 97 238 343 297 297 24 359 348 13 87 287 359 317 356 204 325 41 268 231 270 255 222 235 249 198 115 176 220 238 268 272 295 203 189 154 84 61 82 111 111 106 101 151 303 78 40 113 186 228 321 309 292 277 300 13 27 3 351 356 237 66 111 110
347 348 348 347 346 345 346 349 354 3 14 344 128 246 225 121 84 93 89 95 232 340 90 97 216 296 35 323 63 50 357 336 310 262 257 276 269 324 8 32 92 328 253 267 321 303 272 337 88 110 133 264 279 290 31 45 17 5 107 133 141 125 107 111 133 100 171 230 108 83 200 324 168 261 318 313 317 73 97 67 35 13 51 101 89 84 89
348 349 349 348 347 346 346 348 352 356 3 21 141 273 275 190 155 123 118 105 93 338 50 41 305 230 279 19 29 341 289 267 283 283 220 238 313 345 333 331 310 259 319 310 332 3 46 33 24 116 135 176 237 264 39 29 27 18 35 72 118 134 118 158 49 105 82 66 26 150 209 237 315 283 335 340 102 359 320 39 27 9 360 90 92 90 93
348 350 350 349 348 346 346 347 347 349 356 12 179 243 279 352 105 85 98 97 22 287 215 336 345 7 12 24 336 305 331 352 339 331 8 274 279 301 300 206 282 284 286 284 43 72 43 25 46 7 2 1 359 30 314 348 51 38 17 5 66 129 92 95 97 310 147 148 75 138 330 291 24 3 19 31 1 338 356 10 341 349 352 104 110 103 103
348 352 351 350 349 347 348 346 346 347 350 360 201 293 321 347 114 123 163 89 136 222 102 96 289 277 30 355 25 16 358 317 13 330 273 287 297 291 271 284 308 306 299 62 10 37 128 122 86 70 330 29 110 236 330 33 312 46 40 18 49 77 130 207 105 285 113 135 95 51 19 317 316 244 296 156 193 240 234 97 342 354 66 123 125 123 124
348 353 353 352 349 348 348 347 346 347 350 353 80 283 353 351 120 88 109 132 123 36 306 230 222 219 126 13 338 54 323 326 324 309 336 338 293 324 309 316 314 332 350 75 76 93 86 95 186 103 179 186 233 62 333 350 5 324 29 25 50 38 65 101 113 142 60 56 115 151 159 255 200 297 313 303 188 228 188 82 351 3 133 170 136 132 145
350 353 354 351 351 349 349 347 346 348 349 358 331 345 36 358 66 125 101 58 78 152 239 280 124 100 74 350 6 13 18 359 330 9 334 326 302 287 295 318 295 29 12 82 18 54 44 56 63 116 163 143 82 178 70 49 40 328 333 3 31 37 7 20 56 42 47 122 77 92 40 92 338 312 309 309 302 182 150 31 283 154 148 159 153 143 148
354 354 352 352 351 350 349 348 348 347 349 353 13 56 4 358 71 102 55 93 106 30 306 166 86 50 45 189 213 261 65 14 23 59 187 276 324 327 319 340 342 332 56 79 357 66 60 80 71 297 83 339 116 59 94 183 51 328 346 355 7 0 360 40 78 90 43 70 84 31 336 295 323 324 315 310 293 175 115 205 239 262 155 152 168 147 141
353 351 352 352 352 351 350 349 348 349 351 353 355 34 7 7 13 76 115 79 82 111 261 287 123 138 192 75 141 160 201 166 161 89 318 360 317 277 257 260 334 347 6 75 44 62 77 36 34 113 90 340 31 101 309 42 354 337 52 16 12 12 58 354 58 33 47 76 96 169 223 237 324 319 308 283 355 96 227 245 242 179 129 141 153 150 132
350 350 351 351 351 351 351 350 350 350 353 357 16 119 253 328 6 68 108 117 105 120 269 321 85 125 194 100 55 29 347 24 26 115 149 227 286 355 31 6 330 53 348 61 49 339 89 20 250 162 40 48 41 153 61 67 79 60 71 219 104 316 80 8 38 310 38 39 69 39 29 281 8 322 324 18 94 220 245 333 22 74 100 107 102 111 118
349 349 350 350 350 351 352 352 352 352 355 357 17 74 5 330 15 24 98 129 114 84 332 286 88 210 138 143 173 138 125 85 34 17 242 212 256 80 87 215 271 1 353 48 73 335 49 356 346 73 215 103 299 52 140 168 23 27 77 102 95 17 87 18 23 332 120 39 63 126 246 290 326 345 116 327 290 275 274 159 68 32 81 97 95 73 102
346 348 348 349 351 352 352 353 353 353 355 357 4 82 51 314 359 2 84 95 103 127 184 201 331 216 220 209 188 175 155 160 217 171 150 349 347 92 164 159 272 190 273 111 32 10 4 200 84 52 19 344 22 75 166 71 40 303 349 62 40 328 103 179 123 315 103 140 181 252 324 298 310 14 72 68 37 48 52 82 75 79 46 59 94 86 73
345 346 347 347 350 352 352 352 352 352 354 358 14 75 98 321 341 351 76 62 359 8 3 11 359 351 341 309 204 206 241 157 105 81 127 108 349 357 73 22 323 228 353 99 116 126 168 97 87 148 88 43 108 61 34 102 140 3 52 351 132 126 100 82 73 56 74 51 50 35 338 347 40 32 35 61 62 50 62 72 78 53 63 57 96 94 92
343 346 344 346 347 350 351 351 353 351 351 354 10 51 329 297 311 2 27 60 110 117 352 1 68 4 243 50 4 3 12 327 87 95 164 128 100 320 322 260 214 27 20 294 179 112 210 103 158 116 89 287 87 51 100 41 36 47 60 1 338 291 69 67 105 173 54 16 317 7 20 14 29 60 56 55 65 71 75 76 72 75 71 69 60 77 78
342 342 342 342 345 345 347 349 350 351 349 351 355 337 98 12 1 36 106 127 6 89 141 319 306 224 242 251 244 47 323 349 58 80 51 73 125 127 172 309 157 75 322 332 53 53 39 74 26 50 86 315 102 37 278 110 6 85 67 317 29 16 85 77 89 62 102 183 223 340 2 356 3 3 82 80 75 70 66 86 91 83 74 70 70 67 62
339 339 341 340 341 342 343 345 347 349 342 347 7 35 77 341 308 84 82 60 92 109 103 144 10 326 328 29 29 263 195 21 37 46 40 23 148 163 182 34 22 29 83 63 68 92 97 54 73 86 93 359 71 108 44 164 153 105 106 61 263 249 34 42 314 88 15 34 22 33 51 27 9 13 38 65 93 94 85 78 76 73 71 62 51 51 67
336 339 339 340 338 338 340 341 346 344 339 341 357 8 108 289 349 40 73 154 91 14 37 115 279 302 360 4 309 325 353 35 26 30 30 28 39 33 68 66 74 10 49 28 39 106 60 89 85 46 63 106 85 96 124 39 53 60 28 312 345 53 53 98 75 78 74 177 199 170 93 152 272 22 120 96 80 96 94 92 92 95 100 101 92 64 60
335 339 339 337 338 337 336 338 341 341 336 341 348 347 204 70 353 4 67 123 108 174 162 203 34 288 311 125 339 354 341 17 49 38 33 24 30 42 57 69 77 56 16 66 23 25 33 61 45 228 116 327 56 21 9 138 65 37 24 340 335 110 186 132 138 155 215 237 209 189 142 144 215 203 223 146 133 108 105 105 109 104 112 118 113 106 90
337 337 336 335 334 333 333 333 336 337 337 353 16 35 4 73 15 20 36 48 104 97 93 182 302 19 108 225 321 356 353 46 35 44 45 25 31 35 59 58 78 131 87 71 100 108 92 114 182 79 41 194 98 15 36 24 50 62 300 301 338 290 164 156 184 157 297 181 163 189 155 162 211 225 218 223 355 111 110 113 118 132 134 126 121 128 125
332 332 331 331 328 327 328 328 328 337 345 28 51 47 39 329 330 42 3 36 103 119 96 98 81 223 288 357 319 321 331 6 23 39 35 21 18 23 13 41 35 50 85 103 124 76 251 116 327 297 317 22 113 154 72 189 77 263 290 307 290 35 63 66 171 138 139 124 119 182 98 90 70 93 77 102 29 118 131 150 147 128 123 124 119 120 127
325 324 324 325 324 323 320 321 324 338 19 82 77 59 48 62 299 306 14 13 88 108 124 99 126 273 26 300 63 347 341 7 22 38 11 10 59 11 318 83 37 68 44 0 43 73 88 26 33 343 328 43 107 90 155 115 88 353 292 294 300 90 88 79 78 109 107 100 96 81 80 92 104 85 67 105 141 125 102 88 99 130 140 126 132 131 124
318 318 318 320 320 316 315 315 326 352 36 82 111 163 181 191 218 306 347 327 52 54 73 74 7 20 294 320 308 285 15 24 32 18 356 19 4 5 18 60 75 26 96 102 184 55 35 217 92 341 42 341 70 93 70 82 112 179 262 257 255 130 121 115 106 109 118 123 97 66 74 95 145 149 195 205 161 139 130 142 159 149 136 122 119 124 149
313 315 316 317 317 316 313 311 316 336 267 248 240 251 251 255 272 286 289 322 49 89 118 83 130 208 109 231 320 339 20 22 12 28 3 333 359 12 31 358 12 36 353 76 3 72 246 111 330 58 322 27 82 93 89 117 190 210 216 242 197 141 118 103 109 122 142 150 121 145 173 180 208 198 136 143 146 143 146 148 159 119 110 116 121 121 129
310 311 313 314 312 311 313 311 320 310 347 41 51 351 307 203 28 66 63 75 95 57 74 108 71 50 249 308 71 294 28 88 311 27 42 315 166 68 330 26 356 73 345 64 286 61 348 63 43 306 340 17 33 76 49 313 193 186 241 300 336 42 76 97 117 144 183 188 175 145 167 163 101 93 102 137 170 175 138 134 134 132 148 149 166 178 168
309 309 308 309 308 305 310 344 28 49 99 327 254 254 253 306 195 261 84 110 86 346 31 10 106 89 26 5 52 277 304 78 16 327 97 313 35 55 346 60 330 67 315 77 44 63 50 353 191 64 323 310 45 37 246 219 247 323 332 63 11 97 69 55 319 251 221 183 139 147 140 136 131 151 171 180 175 167 152 180 180 145 157 177 175 180 166
307 305 303 300 300 316 52 37 53 50 24 12 228 275 310 288 319 37 101 111 128 146 88 251 71 131 138 135 99 289 23 55 306 348 277 320 359 17 85 105 57 311 252 73 76 356 45 316 68 22 297 60 288 198 252 187 185 257 255 198 219 185 193 193 188 217 335 7 61 91 91 113 152 175 185 190 178 177 184 172 186 181 177 176 183 188 183
301 296 300 316 14 47 24 234 282 112 198 204 239 268 1 40 358 56 9 29 357 93 130 143 66 177 153 190 241 277 66 78 354 29 343 30 210 298 36 36 71 316 37 5 16 31 318 24 93 60 26 80 311 292 269 181 167 152 135 197 256 253 224 213 215 129 92 42 41 47 62 79 53 214 196 194 200 183 144 194 187 177 191 207 182 175 193
290 320 67 44 41 50 25 324 321 262 281 340 15 45 354 29 63 335 358 33 294 62 360 65 77 285 13 78 52 265 73 294 45 104 323 227 53 344 12 80 247 53 47 337 343 232 17 34 56 98 20 275 266 329 9 354 334 14 26 7 347 351 2 65 123 118 103 77 72 84 60 31 9 330 191 217 182 190 213 213 203 212 196 186 182 178 166
102 61 45 41 93 150 173 265 294 315 1 36 49 71 340 357 59 24 335 289 17 23 308 88 16 143 85 59 11 291 113 131 35 32 99 288 98 321 31 76 312 70 339 38 300 49 54 343 10 38 21 324 4 335 334 346 353 336 315 291 8 63 101 122 142 144 171 184 186 193 159 145 99 342 342 286 227 223 229 224 221 210 185 180 168 172 180
31 54 81 50 89 233 262 283 325 338 63 88 326 105 87 327 93 50 293 58 1 308 41 47 244 135 154 145 140 12 347 58 71 67 124 319 13 118 260 89 276 87 13 80 287 28 113 111 315 67 345 309 317 296 340 284 123 28 346 355 359 30 52 53 4 254 198 236 151 186 179 148 131 132 259 278 260 204 219 215 209 189 184 190 176 165 182
17 60 40 79 250 289 285 294 335 52 66 40 10 8 68 21 348 184 69 48 100 216 227 146 16 34 10 73 78 107 292 84 137 129 112 85 257 78 48 76 236 78 337 27 295 65 69 71 25 102 217 243 238 281 307 306 65 23 8 4 44 49 55 45 20 11 99 100 113 137 140 106 91 146 185 207 205 200 205 208 201 190 178 157 174 199 189
198 162 189 203 281 288 329 7 62 54 10 87 111 306 257 221 300 16 91 120 210 217 348 81 61 129 95 101 189 119 339 203 115 94 97 61 321 104 195 331 16 101 140 237 108 57 75 89 12 4 262 265 268 287 310 354 25 36 30 7 47 52 55 53 46 19 48 92 75 27 47 104 136 218 251 304 291 305 297 212 209 189 193 204 178 145 161
277 223 133 55 32 352 66 54 320 99 99 10 40 42 342 78 170 139 251 293 299 90 274 274 192 150 326 46 30 98 170 286 74 347 70 142 301 53 75 22 47 63 212 323 63 49 54 116 159 243 262 279 285 301 281 313 6 21 7 1 21 15 86 93 89 70 28 70 80 87 88 67 50 301 195 192 146 341 269 258 223 197 188 176 181 185 177
116 93 46 350 73 295 69 91 297 49 4 46 104 147 247 63 312 28 59 312 355 31 268 135 212 99 128 336 135 338 9 2 52 74 46 309 79 12 47 52 216 245 314 39 44 80 193 219 199 231 275 280 318 322 291 317 317 12 48 9 353 354 69 92 79 107 85 35 94 152 211 89 62 20 37 335 279 225 239 260 237 187 164 144 163 189 180
85 8 37 22 33 276 67 299 326 115 170 237 131 155 144 155 208 148 150 232 97 168 46 75 110 88 92 292 41 354 104 184 302 97 247 57 50 357 104 230 252 29 77 127 2 353 14 95 288 311 300 343 333 317 290 257 240 221 244 333 8 6 8 99 308 318 259 253 260 305 20 17 52 36 311 13 340 273 228 202 190 157 170 166 164 166 188
81 146 90 82 352 315 109 175 20 58 289 153 189 193 153 205 151 164 227 106 100 86 89 107 76 85 61 291 124 191 357 76 56 354 127 68 96 25 244 349 69 67 21 45 66 184 206 225 248 240 231 225 245 270 290 276 278 232 89 101 258 291 293 261 257 256 258 243 255 245 230 176 160 311 350 13 305 283 267 297 169 178 159 144 174 196 195
77 15 89 110 105 269 95 120 234 204 172 193 214 168 139 161 188 161 170 107 127 168 113 114 88 139 114 344 26 357 30 53 96 280 69 51 116 253 31 87 50 73 115 131 244 239 261 255 240 241 240 249 260 260 255 235 215 215 210 233 297 280 264 245 246 247 265 277 276 273 271 249 254 221 91 37 358 336 303 231 192 181 173 191 205 187 162
103 241 89 102 218 187 122 248 213 46 28 101 132 145 151 148 87 58 10 81 161 108 87 71 57 357 31 310 88 140 258 13 78 312 136 164 30 43 13 39 15 250 170 156 223 223 229 244 229 235 236 243 239 274 290 277 266 251 263 252 247 258 274 269 273 269 262 253 263 264 270 253 218 206 197 186 203 261 289 315 314 199 192 151 133 159 176
139 119 140 189 193 139 186 268 90 81 339 1 12 54 100 94 111 130 261 38 76 92 155 117 172 90 71 287 82 45 33 344 90 251 21 34 91 189 138 189 70 50 254 171 208 208 218 228 237 230 254 269 251 218 251 241 231 254 253 261 277 250 234 237 242 250 253 233 240 250 260 248 241 235 228 214 214 230 225 225 272 268 201 190 175 167 181
71 354 22 55 26 356 299 47 77 72 9 4 33 75 66 97 100 95 214 68 43 101 22 48 54 92 221 91 26 15 41 319 148 22 61 34 182 170 73 49 234 181 227 237 222 231 233 230 181 175 229 256 275 257 250 268 256 254 260 260 276 271 248 241 266 266 235 228 230 243 255 243 235 232 216 217 222 226 230 224 206 218 239 228 182 181 183
337 116 231 184 128 181 143 138 152 154 161 172 146 169 138 125 145 137 336 123 85 50 41 107 222 85 35 25 52 56 257 199 50 63 153 185 194 102 151 177 235 207 221 229 217 211 194 199 156 187 261 275 259 249 240 243 259 266 273 279 278 283 289 287 271 278 277 250 244 263 265 245 233 228 242 252 288 302 307 292 245 212 194 194 188 202 228
47 65 52 313 4 111 139 113 68 107 139 175 153 204 116 100 236 240 111 97 59 92 148 249 78 56 63 124 215 197 313 42 50 47 37 283 128 126 207 196 214 217 207 179 192 225 235 240 212 210 214 230 252 255 257 270 279 286 287 278 279 291 304 303 299 288 291 304 290 258 263 264 256 218 204 219 269 288 267 261 272 265 259 263 324 285 265